Flag for India Weather past 2 weeks in Kãnpur, Uttar Pradesh, India

Now
86 °F

Haze.


Feels Like: 89 °F
Forecast: 70 / 88 °F
Wind: 2 mph from North

Location: Lucknow / Amausi

Current Time: Oct 24, 2014 at 2:29:43 PM

Latest Report: Oct 24, 2014 at 1:30 PM


Visibility: 3 mi

Pressure: 29.89 "Hg

Humidity: 55%

Dew point: 68 °F

Location of KãnpurLocation

Historic Weather in Kãnpur — Graph

°F

Kãnpur temperature yesterday

Maximum temperature yesterday: 86 °F (at 1:00 PM)
Minimum temperature yesterday: 70 °F (at 3:00 AM)
Average temperature yesterday: 79 °F

Past Weeks' High & Low Weather Summary

 TemperatureHumidityPressure
High102 °F (Oct 9, 2:00 PM)100% (Oct 14, 6:00 AM)30.07 "Hg (Oct 14, 6:00 AM)
Low64 °F (Oct 18, 6:00 AM)32% (Oct 12, 1:30 PM)29.56 "Hg (Oct 14, 1:00 PM)
Average79 °F72%29.87 "Hg
* Reported Oct 9 12:30 PM — Oct 24 1:00 PM, Kãnpur, Weather by CustomWeather, © 2014

Note: Actual official high and low records may vary slightly from our data, if they occured in-between our weather recording intervals... More about our weather records

Advertising

Kãnpur weather history for previous 24 hours

 ConditionsComfort  
Time TempWeatherWind HumidityBarometerVisibility
1:00 PM
Oct 24
86 °FHaze.2 mph55%29.89 "Hg3 mi
12:30 PM84 °FHaze.6 mph55%29.92 "Hg3 mi
12:00 PM84 °FHaze.5 mph55%29.92 "Hg3 mi
11:30 AM84 °FHaze.5 mph55%29.92 "Hg3 mi
11:00 AM82 °FHaze.8 mph58%29.95 "Hg3 mi
10:30 AM81 °FHaze.5 mph66%29.95 "Hg2 mi
10:00 AM79 °FHaze.2 mph74%29.95 "Hg2 mi
9:30 AM77 °FHaze.2 mph79%29.98 "Hg2 mi
8:30 AM75 °FFog.No wind83%29.95 "Hg1 mi
7:30 AM68 °FFog.No wind100%29.95 "Hg1 mi
7:00 AM68 °FFog.No wind94%29.95 "Hg1 mi
6:30 AM68 °FFog.No wind94%29.95 "Hg1 mi
5:30 AM68 °FFog.No wind94%29.92 "Hg1 mi
5:00 AM68 °FFog.No wind100%29.89 "Hg1 mi
4:00 AM68 °FFog.No wind94%29.89 "Hg1 mi
3:00 AM70 °FFog.No wind88%29.89 "Hg1 mi
2:00 AM72 °FFog.No wind88%29.89 "Hg1 mi
1:00 AM72 °FFog.No wind88%29.92 "Hg2 mi
12:00 AM72 °FFog.No wind88%29.92 "Hg2 mi
11:00 PM
Oct 23
73 °FFog.No wind89%29.92 "Hg2 mi
10:00 PM73 °FFog.No wind89%29.92 "Hg2 mi
8:30 PM75 °FFog.No wind83%29.89 "Hg2 mi
7:30 PM77 °FHaze.No wind83%29.89 "Hg2 mi
7:00 PM79 °FHaze.No wind79%29.89 "Hg2 mi
6:30 PM79 °FHaze.No wind79%29.89 "Hg2 mi
6:00 PM81 °FHaze.No wind74%29.89 "Hg2 mi
5:30 PM82 °FHaze.No wind70%29.86 "Hg2 mi
5:00 PM84 °FHaze.No wind62%29.86 "Hg2 mi
4:30 PM84 °FScattered clouds.2 mph62%29.86 "Hg2 mi
4:00 PM84 °FScattered clouds.2 mph62%29.86 "Hg2 mi
3:30 PM84 °FScattered clouds.2 mph62%29.86 "Hg2 mi
3:00 PM86 °FScattered clouds.2 mph59%29.86 "Hg2 mi
2:30 PM86 °FScattered clouds.2 mph59%29.89 "Hg2 mi
2:00 PM86 °FScattered clouds.2 mph59%29.89 "Hg2 mi
Weather by CustomWeather, © 2014

See weather overviewHow to use our weather pages